User: anonymous   Login
Location: Unspecified
(0.0000°N, 0.0000°E)
Time: 03:10:44
(UTC+00:00)
Language:

Transit 2A - Orbit

View from above orbital plane
View from above orbital plane
View from above satellite
View from above satellite

Ground track
Ground track

The orbit data is extracted from the following two-line orbital elements,

1 00045U 60007A   16238.09046895 -.00000072  00000-0  92784-5 0  9998
2 00045  66.6938  89.6921 0262961 249.5844 107.6840 14.33502570923129
Epoch (UTC): 25 August 2016 02:10:16
Eccentricity: 0.0262961
inclination: 66.6938°
perigee height: 592 km
apogee height: 968 km
right ascension of ascending node: 89.6921°
argument of perigee: 249.5844°
revolutions per day: 14.33502570
mean anomaly at epoch: 107.6840°
orbit number at epoch: 92312

The dashed part of the orbit path shows where the satellite is in the earth's shadow,  

DLR